Flag for Canada Weather past 2 weeks in Medicine Hat, Alberta, Canada

Now
79 °F

Scattered clouds.


Feels Like: 80 °F
Forecast: 56 / 84 °F
Wind: 6 mph from North

Location: Medicine Hat

Current Time: Jul 2, 2015 at 12:35:23 PM

Latest Report: Jul 2, 2015 at 12:00 PM


Visibility: 10 mi

Pressure: 30.10 "Hg

Humidity: 48%

Dew point: 57 °F

Location of Medicine HatLocation

Historic Weather in Medicine Hat — Graph

°F

Medicine Hat temperature yesterday

Maximum temperature yesterday: 79 °F (at 1:00 PM)
Minimum temperature yesterday: 55 °F (at 4:00 AM)
Average temperature yesterday: 68 °F

Past Weeks' High & Low Weather Summary

 TemperatureHumidityPressure
High100 °F (Jun 28, 5:00 PM)100% (Jun 24, 4:00 AM)30.15 "Hg (Jun 24, 4:00 AM)
Low43 °F (Jun 22, 4:00 AM)15% (Jun 28, 5:00 PM)29.69 "Hg (Jun 19, 4:00 PM)
Average68 °F57%29.97 "Hg
* Reported Jun 17 11:00 AM — Jul 2 11:00 AM, Medicine Hat, Weather by CustomWeather, © 2015

Note: Actual official high and low records may vary slightly from our data, if they occured in-between our weather recording intervals... More about our weather records

Advertising

Medicine Hat weather history for previous 24 hours

 ConditionsComfort  
Time TempWeatherWind HumidityBarometerVisibility
11:00 AM
Thu, Jul 2
75 °FPassing clouds.3 mph57%30.12 "Hg8 mi
10:00 AM72 °FSunny.2 mph69%30.13 "Hg4 mi
9:00 AM66 °FSunny.No wind78%30.14 "Hg4 mi
8:00 AM61 °FSunny.7 mph88%30.14 "Hg3 mi
7:00 AM57 °FScattered clouds.7 mph94%30.14 "Hg3 mi
6:00 AM55 °FFog.5 mph94%30.12 "Hg3 mi
5:00 AM55 °FFog.6 mph94%30.11 "Hg4 mi
4:00 AM57 °FFog.5 mph94%30.11 "Hg5 mi
3:00 AM57 °FFog.6 mph94%30.11 "Hg5 mi
2:00 AM59 °FFog.5 mph88%30.11 "Hg6 mi
1:00 AM61 °FClear.5 mph83%30.10 "Hg7 mi
12:00 AM61 °FClear.5 mph83%30.10 "Hg8 mi
11:00 PM
Wed, Jul 1
66 °FClear.6 mph68%30.09 "Hg9 mi
10:00 PM68 °FSunny.12 mph64%30.08 "Hg9 mi
9:00 PM72 °FPassing clouds.15 mph57%30.06 "Hg10 mi
8:00 PM75 °FPartly sunny.15 mph50%30.03 "Hg30 mi
7:00 PM77 °FPartly sunny.15 mph47%30.01 "Hg30 mi
6:00 PM79 °FScattered clouds.17 mph39%30.01 "Hg10 mi
5:00 PM77 °FPartly sunny.14 mph47%30.01 "Hg10 mi
4:00 PM77 °FPartly sunny.13 mph51%30.02 "Hg15 mi
3:00 PM79 °FPartly sunny.18 mph48%30.02 "Hg30 mi
2:00 PM73 °FBroken clouds.9 mph69%30.03 "Hg15 mi
1:00 PM79 °FPartly sunny.10 mph48%30.01 "Hg15 mi
12:00 PM73 °FPartly sunny.12 mph61%30.03 "Hg2 mi
Weather by CustomWeather, © 2015

See weather overviewHow to use our weather pages